Year,Month,Day,Hour,Minute,Value (Times are PST for windspeed in km/hr)
2007,09,28,00,00,7.20
2007,09,28,00,01,9.80
2007,09,28,00,02,6.30
2007,09,28,00,03,2.90
2007,09,28,00,04,2.20
2007,09,28,00,05,2.80
2007,09,28,00,06,1.10
2007,09,28,00,07,0.40
2007,09,28,00,08,0.30
2007,09,28,00,09,0.70
2007,09,28,00,10,0.40
2007,09,28,00,11,0.10
2007,09,28,00,12,0.30
2007,09,28,00,13,1.00
2007,09,28,00,14,1.80
2007,09,28,00,15,3.10
2007,09,28,00,16,0.50
2007,09,28,00,17,1.40
2007,09,28,00,18,0.20
2007,09,28,00,19,0.90
2007,09,28,00,20,1.20
2007,09,28,00,21,0.30
2007,09,28,00,22,0.60
2007,09,28,00,23,1.30
2007,09,28,00,24,2.90
2007,09,28,00,25,3.60
2007,09,28,00,26,2.40
2007,09,28,00,27,2.10
2007,09,28,00,28,3.30
2007,09,28,00,29,3.80
2007,09,28,00,30,4.70
2007,09,28,00,31,3.40
2007,09,28,00,32,3.60
2007,09,28,00,33,4.90
2007,09,28,00,34,4.90
2007,09,28,00,35,5.40
2007,09,28,00,36,5.20
2007,09,28,00,37,4.80
2007,09,28,00,38,5.40
2007,09,28,00,39,6.20
2007,09,28,00,40,4.20
2007,09,28,00,41,4.70
2007,09,28,00,42,3.70
2007,09,28,00,43,2.30
2007,09,28,00,44,4.70
2007,09,28,00,45,10.00
2007,09,28,00,46,7.40
2007,09,28,00,47,4.60
2007,09,28,00,48,3.70
2007,09,28,00,49,7.80
2007,09,28,00,50,5.90
2007,09,28,00,51,2.80
2007,09,28,00,52,5.10
2007,09,28,00,53,6.30
2007,09,28,00,54,6.60
2007,09,28,00,55,6.80
2007,09,28,00,56,6.00
2007,09,28,00,57,4.30
2007,09,28,00,58,4.00
2007,09,28,00,59,5.10
2007,09,28,01,00,5.30
2007,09,28,01,01,4.30
2007,09,28,01,02,6.90
2007,09,28,01,03,5.80
2007,09,28,01,04,3.20
2007,09,28,01,05,3.90
2007,09,28,01,06,6.70
2007,09,28,01,07,6.00
2007,09,28,01,08,7.30
2007,09,28,01,09,8.20
2007,09,28,01,10,8.80
2007,09,28,01,11,7.60
2007,09,28,01,12,8.50
2007,09,28,01,13,8.70
2007,09,28,01,14,6.50
2007,09,28,01,15,6.40
2007,09,28,01,16,7.10
2007,09,28,01,17,6.20
2007,09,28,01,18,7.50
2007,09,28,01,19,7.20
2007,09,28,01,20,8.40
2007,09,28,01,21,9.00
2007,09,28,01,22,8.70
2007,09,28,01,23,6.00
2007,09,28,01,24,7.20
2007,09,28,01,25,6.30
2007,09,28,01,26,6.10
2007,09,28,01,27,5.50
2007,09,28,01,28,7.00
2007,09,28,01,29,8.30
2007,09,28,01,30,8.80
2007,09,28,01,31,6.70
2007,09,28,01,32,6.70
2007,09,28,01,33,4.60
2007,09,28,01,34,6.80
2007,09,28,01,35,5.80
2007,09,28,01,36,4.10
2007,09,28,01,37,4.50
2007,09,28,01,38,5.50
2007,09,28,01,39,8.40
2007,09,28,01,40,4.50
2007,09,28,01,41,6.50
2007,09,28,01,42,6.40
2007,09,28,01,43,6.10
2007,09,28,01,44,5.10
2007,09,28,01,45,5.50
2007,09,28,01,46,4.80
2007,09,28,01,47,3.20
2007,09,28,01,48,4.10
2007,09,28,01,49,8.80
2007,09,28,01,50,5.00
2007,09,28,01,51,3.00
2007,09,28,01,52,3.80
2007,09,28,01,53,4.70
2007,09,28,01,54,4.00
2007,09,28,01,55,6.30
2007,09,28,01,56,4.80
2007,09,28,01,57,3.60
2007,09,28,01,58,3.10
2007,09,28,01,59,3.50
2007,09,28,02,00,2.60
2007,09,28,02,01,5.00
2007,09,28,02,02,3.50
2007,09,28,02,03,3.00
2007,09,28,02,04,3.50
2007,09,28,02,05,5.50
2007,09,28,02,06,5.80
2007,09,28,02,07,6.20
2007,09,28,02,08,2.70
2007,09,28,02,09,6.00
2007,09,28,02,10,3.90
2007,09,28,02,11,3.20
2007,09,28,02,12,6.50
2007,09,28,02,13,6.40
2007,09,28,02,14,6.30
2007,09,28,02,15,5.20
2007,09,28,02,16,5.60
2007,09,28,02,17,5.60
2007,09,28,02,18,5.30
2007,09,28,02,19,6.20
2007,09,28,02,20,6.00
2007,09,28,02,21,8.00
2007,09,28,02,22,8.80
2007,09,28,02,23,4.80
2007,09,28,02,24,6.80
2007,09,28,02,25,6.60
2007,09,28,02,26,4.30
2007,09,28,02,27,3.90
2007,09,28,02,28,4.40
2007,09,28,02,29,8.90
2007,09,28,02,30,4.10
2007,09,28,02,31,4.30
2007,09,28,02,32,7.10
2007,09,28,02,33,5.10
2007,09,28,02,34,5.70
2007,09,28,02,35,7.30
2007,09,28,02,36,6.80
2007,09,28,02,37,5.10
2007,09,28,02,38,6.00
2007,09,28,02,39,4.70
2007,09,28,02,40,5.50
2007,09,28,02,41,5.20
2007,09,28,02,42,6.00
2007,09,28,02,43,7.80
2007,09,28,02,44,8.00
2007,09,28,02,45,8.10
2007,09,28,02,46,8.60
2007,09,28,02,47,5.60
2007,09,28,02,48,5.90
2007,09,28,02,49,5.70
2007,09,28,02,50,9.10
2007,09,28,02,51,7.00
2007,09,28,02,52,6.20
2007,09,28,02,53,4.90
2007,09,28,02,54,6.70
2007,09,28,02,55,8.50
2007,09,28,02,56,8.30
2007,09,28,02,57,5.80
2007,09,28,02,58,6.90
2007,09,28,02,59,8.40
2007,09,28,03,00,12.10
2007,09,28,03,01,5.60
2007,09,28,03,02,7.00
2007,09,28,03,03,7.20
2007,09,28,03,04,7.20
2007,09,28,03,05,7.60
2007,09,28,03,06,6.20
2007,09,28,03,07,5.50
2007,09,28,03,08,7.20
2007,09,28,03,09,5.60
2007,09,28,03,10,4.40
2007,09,28,03,11,6.00
2007,09,28,03,12,6.40
2007,09,28,03,13,5.40
2007,09,28,03,14,6.20
2007,09,28,03,15,4.10
2007,09,28,03,16,3.40
2007,09,28,03,17,3.40
2007,09,28,03,18,5.50
2007,09,28,03,19,4.70
2007,09,28,03,20,0.20
2007,09,28,03,21,5.20
2007,09,28,03,22,5.40
2007,09,28,03,23,3.10
2007,09,28,03,24,2.80
2007,09,28,03,25,4.50
2007,09,28,03,26,4.80
2007,09,28,03,27,2.80
2007,09,28,03,28,3.50
2007,09,28,03,29,5.80
2007,09,28,03,30,5.60
2007,09,28,03,31,3.00
2007,09,28,03,32,4.70
2007,09,28,03,33,4.30
2007,09,28,03,34,3.70
2007,09,28,03,35,3.80
2007,09,28,03,36,4.30
2007,09,28,03,37,4.40
2007,09,28,03,38,3.60
2007,09,28,03,39,5.10
2007,09,28,03,40,4.80
2007,09,28,03,41,5.80
2007,09,28,03,42,4.40
2007,09,28,03,43,3.60
2007,09,28,03,44,4.60
2007,09,28,03,45,3.10
2007,09,28,03,46,2.60
2007,09,28,03,47,3.00
2007,09,28,03,48,4.00
2007,09,28,03,49,4.40
2007,09,28,03,50,3.90
2007,09,28,03,51,3.90
2007,09,28,03,52,2.50
2007,09,28,03,53,2.60
2007,09,28,03,54,5.00
2007,09,28,03,55,3.50
2007,09,28,03,56,5.60
2007,09,28,03,57,4.30
2007,09,28,03,58,3.40
2007,09,28,03,59,4.80
2007,09,28,04,00,8.40
2007,09,28,04,01,6.20
2007,09,28,04,02,6.40
2007,09,28,04,03,6.10
2007,09,28,04,04,5.60
2007,09,28,04,05,5.10
2007,09,28,04,06,5.40
2007,09,28,04,07,4.60
2007,09,28,04,08,5.10
2007,09,28,04,09,5.40
2007,09,28,04,10,4.40
2007,09,28,04,11,6.90
2007,09,28,04,12,4.70
2007,09,28,04,13,5.20
2007,09,28,04,14,5.80
2007,09,28,04,15,6.20
2007,09,28,04,16,3.40
2007,09,28,04,17,4.40
2007,09,28,04,18,5.20
2007,09,28,04,19,4.80
2007,09,28,04,20,4.60
2007,09,28,04,21,4.80
2007,09,28,04,22,5.80
2007,09,28,04,23,3.00
2007,09,28,04,24,4.10
2007,09,28,04,25,3.10
2007,09,28,04,26,3.90
2007,09,28,04,27,4.20
2007,09,28,04,28,2.20
2007,09,28,04,29,4.00
2007,09,28,04,30,3.70
2007,09,28,04,31,3.90
2007,09,28,04,32,3.20
2007,09,28,04,33,4.30
2007,09,28,04,34,5.20
2007,09,28,04,35,5.30
2007,09,28,04,36,4.40
2007,09,28,04,37,4.70
2007,09,28,04,38,3.40
2007,09,28,04,39,3.60
2007,09,28,04,40,4.40
2007,09,28,04,41,4.40
2007,09,28,04,42,4.70
2007,09,28,04,43,3.30
2007,09,28,04,44,4.10
2007,09,28,04,45,4.60
2007,09,28,04,46,3.10
2007,09,28,04,47,2.00
2007,09,28,04,48,3.10
2007,09,28,04,49,2.90
2007,09,28,04,50,2.10
2007,09,28,04,51,2.60
2007,09,28,04,52,2.70
2007,09,28,04,53,1.90
2007,09,28,04,54,1.70
2007,09,28,04,55,0.90
2007,09,28,04,56,0.40
2007,09,28,04,57,0.20
2007,09,28,04,58,0.20
2007,09,28,04,59,0.90
2007,09,28,05,00,1.00
2007,09,28,05,01,0.80
2007,09,28,05,02,1.40
2007,09,28,05,03,1.10
2007,09,28,05,04,0.60
2007,09,28,05,05,2.50
2007,09,28,05,06,1.30
2007,09,28,05,07,0.90
2007,09,28,05,08,1.70
2007,09,28,05,09,0.40
2007,09,28,05,10,0.40
2007,09,28,05,11,1.40
2007,09,28,05,12,2.30
2007,09,28,05,13,1.70
2007,09,28,05,14,1.60
2007,09,28,05,15,1.90
2007,09,28,05,16,2.80
2007,09,28,05,17,4.60
2007,09,28,05,18,2.40
2007,09,28,05,19,3.30
2007,09,28,05,20,3.10
2007,09,28,05,21,3.00
2007,09,28,05,22,3.90
2007,09,28,05,23,5.40
2007,09,28,05,24,5.30
2007,09,28,05,25,3.30
2007,09,28,05,26,2.10
2007,09,28,05,27,5.20
2007,09,28,05,28,5.50
2007,09,28,05,29,4.10
2007,09,28,05,30,4.10
2007,09,28,05,31,4.00
2007,09,28,05,32,5.60
2007,09,28,05,33,6.50
2007,09,28,05,34,5.10
2007,09,28,05,35,5.10
2007,09,28,05,36,5.30
2007,09,28,05,37,5.40
2007,09,28,05,38,5.40
2007,09,28,05,39,4.70
2007,09,28,05,40,5.30
2007,09,28,05,41,4.20
2007,09,28,05,42,6.00
2007,09,28,05,43,4.90
2007,09,28,05,44,4.60
2007,09,28,05,45,1.40
2007,09,28,05,46,3.60
2007,09,28,05,47,4.00
2007,09,28,05,48,3.50
2007,09,28,05,49,3.90
2007,09,28,05,50,1.90
2007,09,28,05,51,2.40
2007,09,28,05,52,3.60
2007,09,28,05,53,3.70
2007,09,28,05,54,2.70
2007,09,28,05,55,1.60
2007,09,28,05,56,4.40
2007,09,28,05,57,2.80
2007,09,28,05,58,2.30
2007,09,28,05,59,0.60
2007,09,28,06,00,2.50
2007,09,28,06,01,1.00
2007,09,28,06,02,1.40
2007,09,28,06,03,2.80
2007,09,28,06,04,2.60
2007,09,28,06,05,3.90
2007,09,28,06,06,4.20
2007,09,28,06,07,4.50
2007,09,28,06,08,5.40
2007,09,28,06,09,4.90
2007,09,28,06,10,3.30
2007,09,28,06,11,3.10
2007,09,28,06,12,4.60
2007,09,28,06,13,5.80
2007,09,28,06,14,5.40
2007,09,28,06,15,5.90
2007,09,28,06,16,5.70
2007,09,28,06,17,4.80
2007,09,28,06,18,4.80
2007,09,28,06,19,4.60
2007,09,28,06,20,3.80
2007,09,28,06,21,1.80
2007,09,28,06,22,1.70
2007,09,28,06,23,2.70
2007,09,28,06,24,2.70
2007,09,28,06,25,3.90
2007,09,28,06,26,3.90
2007,09,28,06,27,4.00
2007,09,28,06,28,4.50
2007,09,28,06,29,3.20
2007,09,28,06,30,3.80
2007,09,28,06,31,3.40
2007,09,28,06,32,4.00
2007,09,28,06,33,4.30
2007,09,28,06,34,3.40
2007,09,28,06,35,3.00
2007,09,28,06,36,3.00
2007,09,28,06,37,2.40
2007,09,28,06,38,2.10
2007,09,28,06,39,1.10
2007,09,28,06,40,4.10
2007,09,28,06,41,3.90
2007,09,28,06,42,3.00
2007,09,28,06,43,2.70
2007,09,28,06,44,3.80
2007,09,28,06,45,4.80
2007,09,28,06,46,4.70
2007,09,28,06,47,4.10
2007,09,28,06,48,3.90
2007,09,28,06,49,4.50
2007,09,28,06,50,4.40
2007,09,28,06,51,5.20
2007,09,28,06,52,4.00
2007,09,28,06,53,5.30
2007,09,28,06,54,5.00
2007,09,28,06,55,5.50
2007,09,28,06,56,6.20
2007,09,28,06,57,5.40
2007,09,28,06,58,3.80
2007,09,28,06,59,4.70
2007,09,28,07,00,4.10
2007,09,28,07,01,4.70
2007,09,28,07,02,3.10
2007,09,28,07,03,2.60
2007,09,28,07,04,3.30
2007,09,28,07,05,4.30
2007,09,28,07,06,3.80
2007,09,28,07,07,3.10
2007,09,28,07,08,3.10
2007,09,28,07,09,2.10
2007,09,28,07,10,4.60
2007,09,28,07,11,4.80
2007,09,28,07,12,4.00
2007,09,28,07,13,3.10
2007,09,28,07,14,4.90
2007,09,28,07,15,4.40
2007,09,28,07,16,4.70
2007,09,28,07,17,5.20
2007,09,28,07,18,5.40
2007,09,28,07,19,4.80
2007,09,28,07,20,4.20
2007,09,28,07,21,3.00
2007,09,28,07,22,4.10
2007,09,28,07,23,4.50
2007,09,28,07,24,3.70
2007,09,28,07,25,4.20
2007,09,28,07,26,3.70
2007,09,28,07,27,2.60
2007,09,28,07,28,3.20
2007,09,28,07,29,3.10
2007,09,28,07,30,2.60
2007,09,28,07,31,2.30
2007,09,28,07,32,2.10
2007,09,28,07,33,1.70
2007,09,28,07,34,1.40
2007,09,28,07,35,2.20
2007,09,28,07,36,3.80
2007,09,28,07,37,3.00
2007,09,28,07,38,3.50
2007,09,28,07,39,2.60
2007,09,28,07,40,3.20
2007,09,28,07,41,4.20
2007,09,28,07,42,5.60
2007,09,28,07,43,5.50
2007,09,28,07,44,5.20
2007,09,28,07,45,5.70
2007,09,28,07,46,5.30
2007,09,28,07,47,3.00
2007,09,28,07,48,4.60
2007,09,28,07,49,3.60
2007,09,28,07,50,2.30
2007,09,28,07,51,4.30
2007,09,28,07,52,3.20
2007,09,28,07,53,3.60
2007,09,28,07,54,4.70
2007,09,28,07,55,4.10
2007,09,28,07,56,4.30
2007,09,28,07,57,2.50
2007,09,28,07,58,3.40
2007,09,28,07,59,1.70
2007,09,28,08,00,1.90
2007,09,28,08,01,2.10
2007,09,28,08,02,2.70
2007,09,28,08,03,1.60
2007,09,28,08,04,1.90
2007,09,28,08,05,2.50
2007,09,28,08,06,2.70
2007,09,28,08,07,3.20
2007,09,28,08,08,1.80
2007,09,28,08,09,2.70
2007,09,28,08,10,3.90
2007,09,28,08,11,2.30
2007,09,28,08,12,4.20
2007,09,28,08,13,3.50
2007,09,28,08,14,2.50
2007,09,28,08,15,1.70
2007,09,28,08,16,0.70
2007,09,28,08,17,0.30
2007,09,28,08,18,1.60
2007,09,28,08,19,3.70
2007,09,28,08,20,2.30
2007,09,28,08,21,2.00
2007,09,28,08,22,1.20
2007,09,28,08,23,0.60
2007,09,28,08,24,4.50
2007,09,28,08,25,3.80
2007,09,28,08,26,1.60
2007,09,28,08,27,1.00
2007,09,28,08,28,1.10
2007,09,28,08,29,1.90
2007,09,28,08,30,1.90
2007,09,28,08,31,2.90
2007,09,28,08,32,1.50
2007,09,28,08,33,5.80
2007,09,28,08,34,3.50
2007,09,28,08,35,0.80
2007,09,28,08,36,2.40
2007,09,28,08,37,3.00
2007,09,28,08,38,0.30
2007,09,28,08,39,0.20
2007,09,28,08,40,0.50
2007,09,28,08,41,0.50
2007,09,28,08,42,2.40
2007,09,28,08,43,2.10
2007,09,28,08,44,1.50
2007,09,28,08,45,3.40
2007,09,28,08,46,3.90
2007,09,28,08,47,2.30
2007,09,28,08,48,5.60
2007,09,28,08,49,3.10
2007,09,28,08,50,2.70
2007,09,28,08,51,5.20
2007,09,28,08,52,2.80
2007,09,28,08,53,0.70
2007,09,28,08,54,3.80
2007,09,28,08,55,4.90
2007,09,28,08,56,5.70
2007,09,28,08,57,7.10
2007,09,28,08,58,2.50
2007,09,28,08,59,2.20
2007,09,28,09,00,4.00
2007,09,28,09,01,4.00
2007,09,28,09,02,5.60
2007,09,28,09,03,5.10
2007,09,28,09,04,2.80
2007,09,28,09,05,1.60
2007,09,28,09,06,6.40
2007,09,28,09,07,6.40
2007,09,28,09,08,4.60
2007,09,28,09,09,5.50
2007,09,28,09,10,4.80
2007,09,28,09,11,3.40
2007,09,28,09,12,5.40
2007,09,28,09,13,3.30
2007,09,28,09,14,5.50
2007,09,28,09,15,4.30
2007,09,28,09,16,4.60
2007,09,28,09,17,4.40
2007,09,28,09,18,7.20
2007,09,28,09,19,7.70
2007,09,28,09,20,3.20
2007,09,28,09,21,3.10
2007,09,28,09,22,7.00
2007,09,28,09,23,4.20
2007,09,28,09,24,2.30
2007,09,28,09,25,5.30
2007,09,28,09,26,4.40
2007,09,28,09,27,8.10
2007,09,28,09,28,4.60
2007,09,28,09,29,5.60
2007,09,28,09,30,4.20
2007,09,28,09,31,5.30
2007,09,28,09,32,7.90
2007,09,28,09,33,6.00
2007,09,28,09,34,3.90
2007,09,28,09,35,2.60
2007,09,28,09,36,0.00
2007,09,28,09,37,3.70
2007,09,28,09,38,7.20
2007,09,28,09,39,4.30
2007,09,28,09,40,7.00
2007,09,28,09,41,5.40
2007,09,28,09,42,5.50
2007,09,28,09,43,8.50
2007,09,28,09,44,8.50
2007,09,28,09,45,7.90
2007,09,28,09,46,7.00
2007,09,28,09,47,5.60
2007,09,28,09,48,5.20
2007,09,28,09,49,5.90
2007,09,28,09,50,4.70
2007,09,28,09,51,7.10
2007,09,28,09,52,7.90
2007,09,28,09,53,8.30
2007,09,28,09,54,8.00
2007,09,28,09,55,5.60
2007,09,28,09,56,3.90
2007,09,28,09,57,6.70
2007,09,28,09,58,4.30
2007,09,28,09,59,7.40
2007,09,28,10,00,8.00
2007,09,28,10,01,6.80
2007,09,28,10,02,4.30
2007,09,28,10,03,3.60
2007,09,28,10,04,3.30
2007,09,28,10,05,3.50
2007,09,28,10,06,7.10
2007,09,28,10,07,3.60
2007,09,28,10,08,11.60
2007,09,28,10,09,7.40
2007,09,28,10,10,11.00
2007,09,28,10,11,13.00
2007,09,28,10,12,11.10
2007,09,28,10,13,6.50
2007,09,28,10,14,7.70
2007,09,28,10,15,5.40
2007,09,28,10,16,6.80
2007,09,28,10,17,7.00
2007,09,28,10,18,5.80
2007,09,28,10,19,6.10
2007,09,28,10,20,9.70
2007,09,28,10,21,4.70
2007,09,28,10,22,8.10
2007,09,28,10,23,13.00
2007,09,28,10,24,8.30
2007,09,28,10,25,6.70
2007,09,28,10,26,7.20
2007,09,28,10,27,4.70
2007,09,28,10,28,2.90
2007,09,28,10,29,3.00
2007,09,28,10,30,2.80
2007,09,28,10,31,5.10
2007,09,28,10,32,6.80
2007,09,28,10,33,14.00
2007,09,28,10,34,5.80
2007,09,28,10,35,6.60
2007,09,28,10,36,9.40
2007,09,28,10,37,8.10
2007,09,28,10,38,6.70
2007,09,28,10,39,9.00
2007,09,28,10,40,9.30
2007,09,28,10,41,5.60
2007,09,28,10,42,3.20
2007,09,28,10,43,4.30
2007,09,28,10,44,12.20
2007,09,28,10,45,10.80
2007,09,28,10,46,2.80
2007,09,28,10,47,7.70
2007,09,28,10,48,6.90
2007,09,28,10,49,8.50
2007,09,28,10,50,5.20
2007,09,28,10,51,7.40
2007,09,28,10,52,6.80
2007,09,28,10,53,4.30
2007,09,28,10,54,4.10
2007,09,28,10,55,2.30
2007,09,28,10,56,4.50
2007,09,28,10,57,4.50
2007,09,28,10,58,3.00
2007,09,28,10,59,3.70
2007,09,28,11,00,2.10
2007,09,28,11,01,2.70
2007,09,28,11,02,2.90
2007,09,28,11,03,6.00
2007,09,28,11,04,2.00
2007,09,28,11,05,6.20
2007,09,28,11,06,5.40
2007,09,28,11,07,3.50
2007,09,28,11,08,6.80
2007,09,28,11,09,6.90
2007,09,28,11,10,6.80
2007,09,28,11,11,11.40
2007,09,28,11,12,4.10
2007,09,28,11,13,7.20
2007,09,28,11,14,7.80
2007,09,28,11,15,6.60
2007,09,28,11,16,6.00
2007,09,28,11,17,7.20
2007,09,28,11,18,4.20
2007,09,28,11,19,8.40
2007,09,28,11,20,5.80
2007,09,28,11,21,6.80
2007,09,28,11,22,5.60
2007,09,28,11,23,4.10
2007,09,28,11,24,5.30
2007,09,28,11,25,5.20
2007,09,28,11,26,6.20
2007,09,28,11,27,5.90
2007,09,28,11,28,4.70
2007,09,28,11,29,3.10
2007,09,28,11,30,4.70
2007,09,28,11,31,11.30
2007,09,28,11,32,8.10
2007,09,28,11,33,5.40
2007,09,28,11,34,4.30
2007,09,28,11,35,4.50
2007,09,28,11,36,3.40
2007,09,28,11,37,1.40
2007,09,28,11,38,7.50
2007,09,28,11,39,6.50
2007,09,28,11,40,6.10
2007,09,28,11,41,6.20
2007,09,28,11,42,8.60
2007,09,28,11,43,14.50
2007,09,28,11,44,11.30
2007,09,28,11,45,13.00
2007,09,28,11,46,12.30
2007,09,28,11,47,14.70
2007,09,28,11,48,13.70
2007,09,28,11,49,8.50
2007,09,28,11,50,7.70
2007,09,28,11,51,7.70
2007,09,28,11,52,5.40
2007,09,28,11,53,6.40
2007,09,28,11,54,6.50
2007,09,28,11,55,5.50
2007,09,28,11,56,4.80
2007,09,28,11,57,7.50
2007,09,28,11,58,4.70
2007,09,28,11,59,2.70
2007,09,28,12,00,6.10
2007,09,28,12,01,7.60
2007,09,28,12,02,9.30
2007,09,28,12,03,6.10
2007,09,28,12,04,4.40
2007,09,28,12,05,5.50
2007,09,28,12,06,8.10
2007,09,28,12,07,6.60
2007,09,28,12,08,4.20
2007,09,28,12,09,7.20
2007,09,28,12,10,3.70
2007,09,28,12,11,6.30
2007,09,28,12,12,4.80
2007,09,28,12,13,6.50
2007,09,28,12,14,6.40
2007,09,28,12,15,7.20
2007,09,28,12,16,4.40
2007,09,28,12,17,3.80
2007,09,28,12,18,7.30
2007,09,28,12,19,5.00
2007,09,28,12,20,7.20
2007,09,28,12,21,5.30
2007,09,28,12,22,4.40
2007,09,28,12,23,4.90
2007,09,28,12,24,7.80
2007,09,28,12,25,8.60
2007,09,28,12,26,7.30
2007,09,28,12,27,6.80
2007,09,28,12,28,4.80
2007,09,28,12,29,7.70
2007,09,28,12,30,8.50
2007,09,28,12,31,6.50
2007,09,28,12,32,5.40
2007,09,28,12,33,5.40
2007,09,28,12,34,4.90
2007,09,28,12,35,3.60
2007,09,28,12,36,3.90
2007,09,28,12,37,4.90
2007,09,28,12,38,6.00
2007,09,28,12,39,6.90
2007,09,28,12,40,5.10
2007,09,28,12,41,2.10
2007,09,28,12,42,1.60
2007,09,28,12,43,5.90
2007,09,28,12,44,1.40
2007,09,28,12,45,3.20
2007,09,28,12,46,2.30
2007,09,28,12,47,5.00
2007,09,28,12,48,5.90
2007,09,28,12,49,3.90
2007,09,28,12,50,2.90
2007,09,28,12,51,4.90
2007,09,28,12,52,2.40
2007,09,28,12,53,2.20
2007,09,28,12,54,2.70
2007,09,28,12,55,1.90
2007,09,28,12,56,0.90
2007,09,28,12,57,2.40
2007,09,28,12,58,3.20
2007,09,28,12,59,3.20
2007,09,28,13,00,5.60
2007,09,28,13,01,6.20
2007,09,28,13,02,4.70
2007,09,28,13,03,4.70
2007,09,28,13,04,6.20
2007,09,28,13,05,0.90
2007,09,28,13,06,2.80
2007,09,28,13,07,1.80
2007,09,28,13,08,0.40
2007,09,28,13,09,0.90
2007,09,28,13,10,0.20
2007,09,28,13,11,1.30
2007,09,28,13,12,4.50
2007,09,28,13,13,4.90
2007,09,28,13,14,0.90
2007,09,28,13,15,2.30
2007,09,28,13,16,2.10
2007,09,28,13,17,5.20
2007,09,28,13,18,7.40
2007,09,28,13,19,5.20
2007,09,28,13,20,4.50
2007,09,28,13,21,3.50
2007,09,28,13,22,5.80
2007,09,28,13,23,10.20
2007,09,28,13,24,7.50
2007,09,28,13,25,3.40
2007,09,28,13,26,4.70
2007,09,28,13,27,7.20
2007,09,28,13,28,6.00
2007,09,28,13,29,9.20
2007,09,28,13,30,10.10
2007,09,28,13,31,6.40
2007,09,28,13,32,10.50
2007,09,28,13,33,9.60
2007,09,28,13,34,9.40
2007,09,28,13,35,10.50
2007,09,28,13,36,9.20
2007,09,28,13,37,7.60
2007,09,28,13,38,9.90
2007,09,28,13,39,6.00
2007,09,28,13,40,7.20
2007,09,28,13,41,7.10
2007,09,28,13,42,6.40
2007,09,28,13,43,9.30
2007,09,28,13,44,6.20
2007,09,28,13,45,7.20
2007,09,28,13,46,7.30
2007,09,28,13,47,2.00
2007,09,28,13,48,12.20
2007,09,28,13,49,6.70
2007,09,28,13,50,13.40
2007,09,28,13,51,6.00
2007,09,28,13,52,12.00
2007,09,28,13,53,11.30
2007,09,28,13,54,6.70
2007,09,28,13,55,7.80
2007,09,28,13,56,10.90
2007,09,28,13,57,7.00
2007,09,28,13,58,6.20
2007,09,28,13,59,15.90
2007,09,28,14,00,17.70
2007,09,28,14,01,14.00
2007,09,28,14,02,11.60
2007,09,28,14,03,14.10
2007,09,28,14,04,12.90
2007,09,28,14,05,12.70
2007,09,28,14,06,10.90
2007,09,28,14,07,14.30
2007,09,28,14,08,9.60
2007,09,28,14,09,5.80
2007,09,28,14,10,6.80
2007,09,28,14,11,11.30
2007,09,28,14,12,9.30
2007,09,28,14,13,8.70
2007,09,28,14,14,10.00
2007,09,28,14,15,9.90
2007,09,28,14,16,10.80
2007,09,28,14,17,11.30
2007,09,28,14,18,5.10
2007,09,28,14,19,6.40
2007,09,28,14,20,7.60
2007,09,28,14,21,13.20
2007,09,28,14,22,13.80
2007,09,28,14,23,15.10
2007,09,28,14,24,8.60
2007,09,28,14,25,10.90
2007,09,28,14,26,5.50
2007,09,28,14,27,6.20
2007,09,28,14,28,6.70
2007,09,28,14,29,8.00
2007,09,28,14,30,12.80
2007,09,28,14,31,14.70
2007,09,28,14,32,12.40
2007,09,28,14,33,10.50
2007,09,28,14,34,6.70
2007,09,28,14,35,7.90
2007,09,28,14,36,8.80
2007,09,28,14,37,4.30
2007,09,28,14,38,4.20
2007,09,28,14,39,5.00
2007,09,28,14,40,4.70
2007,09,28,14,41,5.70
2007,09,28,14,42,6.30
2007,09,28,14,43,3.30
2007,09,28,14,44,4.40
2007,09,28,14,45,8.70
2007,09,28,14,46,10.00
2007,09,28,14,47,9.10
2007,09,28,14,48,13.30
2007,09,28,14,49,7.60
2007,09,28,14,50,7.20
2007,09,28,14,51,8.70
2007,09,28,14,52,11.60
2007,09,28,14,53,15.30
2007,09,28,14,54,7.70
2007,09,28,14,55,11.60
2007,09,28,14,56,6.30
2007,09,28,14,57,6.40
2007,09,28,14,58,10.60
2007,09,28,14,59,8.20
2007,09,28,15,00,9.20
2007,09,28,15,01,7.00
2007,09,28,15,02,11.40
2007,09,28,15,03,7.90
2007,09,28,15,04,4.70
2007,09,28,15,05,9.50
2007,09,28,15,06,4.90
2007,09,28,15,07,7.10
2007,09,28,15,08,10.90
2007,09,28,15,09,14.80
2007,09,28,15,10,9.70
2007,09,28,15,11,9.80
2007,09,28,15,12,13.70
2007,09,28,15,13,7.50
2007,09,28,15,14,13.80
2007,09,28,15,15,12.10
2007,09,28,15,16,6.90
2007,09,28,15,17,13.20
2007,09,28,15,18,13.20
2007,09,28,15,19,9.30
2007,09,28,15,20,10.90
2007,09,28,15,21,9.90
2007,09,28,15,22,9.10
2007,09,28,15,23,8.50
2007,09,28,15,24,8.80
2007,09,28,15,25,7.50
2007,09,28,15,26,9.10
2007,09,28,15,27,8.60
2007,09,28,15,28,7.10
2007,09,28,15,29,9.50
2007,09,28,15,30,8.00
2007,09,28,15,31,8.70
2007,09,28,15,32,12.70
2007,09,28,15,33,7.40
2007,09,28,15,34,4.00
2007,09,28,15,35,7.60
2007,09,28,15,36,4.60
2007,09,28,15,37,5.90
2007,09,28,15,38,8.10
2007,09,28,15,39,8.00
2007,09,28,15,40,4.50
2007,09,28,15,41,8.70
2007,09,28,15,42,8.40
2007,09,28,15,43,7.20
2007,09,28,15,44,3.50
2007,09,28,15,45,2.50
2007,09,28,15,46,6.50
2007,09,28,15,47,7.70
2007,09,28,15,48,5.10
2007,09,28,15,49,9.00
2007,09,28,15,50,11.00
2007,09,28,15,51,8.70
2007,09,28,15,52,9.40
2007,09,28,15,53,6.40
2007,09,28,15,54,6.00
2007,09,28,15,55,4.30
2007,09,28,15,56,8.10
2007,09,28,15,57,8.60
2007,09,28,15,58,8.50
2007,09,28,15,59,7.30
2007,09,28,16,00,3.10
2007,09,28,16,01,6.40
2007,09,28,16,02,10.50
2007,09,28,16,03,6.80
2007,09,28,16,04,9.30
2007,09,28,16,05,6.60
2007,09,28,16,06,4.20
2007,09,28,16,07,5.10
2007,09,28,16,08,4.70
2007,09,28,16,09,4.50
2007,09,28,16,10,5.50
2007,09,28,16,11,6.70
2007,09,28,16,12,10.30
2007,09,28,16,13,8.00
2007,09,28,16,14,6.40
2007,09,28,16,15,2.90
2007,09,28,16,16,7.40
2007,09,28,16,17,6.30
2007,09,28,16,18,5.60
2007,09,28,16,19,7.70
2007,09,28,16,20,9.10
2007,09,28,16,21,9.10
2007,09,28,16,22,8.20
2007,09,28,16,23,3.30
2007,09,28,16,24,5.10
2007,09,28,16,25,5.40
2007,09,28,16,26,6.40
2007,09,28,16,27,4.90
2007,09,28,16,28,6.40
2007,09,28,16,29,6.30
2007,09,28,16,30,4.30
2007,09,28,16,31,9.10
2007,09,28,16,32,5.70
2007,09,28,16,33,9.00
2007,09,28,16,34,9.20
2007,09,28,16,35,15.80
2007,09,28,16,36,6.40
2007,09,28,16,37,10.80
2007,09,28,16,38,13.50
2007,09,28,16,39,21.60
2007,09,28,16,40,6.10
2007,09,28,16,41,8.00
2007,09,28,16,42,7.70
2007,09,28,16,43,7.10
2007,09,28,16,44,9.70
2007,09,28,16,45,4.40
2007,09,28,16,46,9.60
2007,09,28,16,47,6.60
2007,09,28,16,48,7.50
2007,09,28,16,49,7.60
2007,09,28,16,50,4.20
2007,09,28,16,51,3.50
2007,09,28,16,52,10.50
2007,09,28,16,53,11.90
2007,09,28,16,54,2.80
2007,09,28,16,55,1.60
2007,09,28,16,56,4.80
2007,09,28,16,57,10.70
2007,09,28,16,58,9.60
2007,09,28,16,59,6.10
2007,09,28,17,00,4.20
2007,09,28,17,01,4.60
2007,09,28,17,02,4.00
2007,09,28,17,03,7.20
2007,09,28,17,04,4.50
2007,09,28,17,05,11.30
2007,09,28,17,06,8.00
2007,09,28,17,07,13.10
2007,09,28,17,08,9.40
2007,09,28,17,09,8.60
2007,09,28,17,10,5.50
2007,09,28,17,11,7.40
2007,09,28,17,12,10.80
2007,09,28,17,13,11.60
2007,09,28,17,14,12.80
2007,09,28,17,15,6.80
2007,09,28,17,16,10.20
2007,09,28,17,17,6.40
2007,09,28,17,18,8.50
2007,09,28,17,19,5.90
2007,09,28,17,20,7.20
2007,09,28,17,21,9.40
2007,09,28,17,22,12.30
2007,09,28,17,23,9.20
2007,09,28,17,24,9.10
2007,09,28,17,25,11.00
2007,09,28,17,26,6.30
2007,09,28,17,27,11.40
2007,09,28,17,28,10.40
2007,09,28,17,29,10.40
2007,09,28,17,30,12.90
2007,09,28,17,31,16.20
2007,09,28,17,32,7.00
2007,09,28,17,33,6.40
2007,09,28,17,34,10.60
2007,09,28,17,35,6.20
2007,09,28,17,36,6.30
2007,09,28,17,37,12.10
2007,09,28,17,38,14.80
2007,09,28,17,39,11.80
2007,09,28,17,40,6.10
2007,09,28,17,41,7.50
2007,09,28,17,42,8.90
2007,09,28,17,43,5.80
2007,09,28,17,44,1.60
2007,09,28,17,45,3.20
2007,09,28,17,46,11.50
2007,09,28,17,47,7.80
2007,09,28,17,48,12.40
2007,09,28,17,49,6.60
2007,09,28,17,50,6.30
2007,09,28,17,51,5.50
2007,09,28,17,52,8.90
2007,09,28,17,53,5.50
2007,09,28,17,54,7.60
2007,09,28,17,55,12.10
2007,09,28,17,56,11.20
2007,09,28,17,57,8.20
2007,09,28,17,58,10.30
2007,09,28,17,59,9.70
2007,09,28,18,00,13.00
2007,09,28,18,01,8.00
2007,09,28,18,02,5.70